Location: Kellogg
(38.0159°N, 90.0546°W)
Time: 08:35:31
(UTC+00:00)

Altair - Pass Details

Date: 20 September 2024
Orbit: 1501 x 1682 km, 47.2° (Epoch: 07 October)

Event Time Altitude Azimuth Distance (km) Brightness Sun altitude
Rises 05:23:11 0° 205° (SSW) 4,750 - -50.5°
Reaches altitude 10° 05:26:28 10° 198° (SSW) 3,794 - -50.6°
Maximum altitude 05:35:16 41° 132° (SE) 2,234 - -50.9°
Exits shadow 05:43:44 12° 69° (ENE) 3,749 9.6 -51.0°
Drops below altitude 10° 05:44:21 10° 67° (ENE) 3,924 9.7 -51.0°
Sets 05:47:47 0° 61° (ENE) 4,927 10.4 -51.1°
